DateTimeUTC,F1_A11,F1_S11,BsB_S11,BsG_S11,BsR_S11,BbsB_S11,BbsG_S11,BbsR_S11,BaB_A11,BaG_A11,BaR_A11,Tu_S11,T_S11,Uu_S11,U_S11,P_S11,T1_A11
2021-02-14T13:00:00Z,00000200,21000000,,,,,,,-000.22,0000.02,0000.31,17.3,23.7,00.9,00.6,0650.8,31.0
2021-02-14T13:01:00Z,00000200,21000000,,,,,,,0000.23,-000.24,-000.64,17.3,23.7,00.9,00.6,0650.8,31.0
2021-02-14T13:02:00Z,00000200,21000000,,,,,,,-000.16,0000.03,0000.16,17.3,23.7,00.6,00.4,0650.8,31.1
2021-02-14T13:03:00Z,00000200,61000000,,,,,,,-000.19,-000.06,0000.21,17.3,23.7,00.6,00.4,0650.8,31.1
2021-02-14T13:04:00Z,00000200,41000000,0000.50,-000.07,0000.01,-000.16,0000.25,0000.15,0000.25,-000.07,-000.49,17.3,23.5,00.8,00.6,0651.9,31.1
2021-02-14T13:05:00Z,00000200,01000000,-000.44,0000.31,0000.21,-000.12,0000.21,0000.27,0000.19,0000.41,0000.55,17.4,23.5,00.8,00.6,0651.9,31.0
2021-02-14T13:06:00Z,00000200,01000000,0000.43,0000.29,-000.17,0000.07,0000.19,-000.23,-000.00,0000.11,0000.19,17.5,23.5,00.8,00.6,0651.8,31.1
2021-02-14T13:07:00Z,00000200,01000000,0000.24,0000.27,0000.18,0000.15,0000.14,-000.09,0000.16,-000.32,-000.30,17.5,23.5,00.8,00.5,0651.8,31.1
2021-02-14T13:08:00Z,00000200,01000000,0000.32,-000.16,0000.14,-000.08,0000.32,-000.15,-000.05,0000.22,0000.22,17.6,23.6,00.8,00.5,0651.9,31.1
2021-02-14T13:09:00Z,00000200,01000000,0000.28,-000.04,0000.24,-000.23,0000.05,-000.02,-000.32,0000.38,0000.03,17.7,23.6,00.8,00.6,0651.9,31.1
2021-02-14T13:10:00Z,00000200,01000000,-000.21,0000.16,0000.15,0000.28,0000.18,0000.31,0000.19,-000.20,0000.15,17.7,23.6,00.8,00.6,0651.7,31.1
2021-02-14T13:11:00Z,00000200,01000000,0000.48,0000.07,0000.16,-000.38,0000.00,0000.24,0000.19,0000.07,-000.33,17.7,23.6,00.8,00.5,0651.6,31.0
2021-02-14T13:12:00Z,00000200,01000000,0000.04,-000.01,-000.18,0000.21,0000.21,0000.07,-000.20,-000.04,0000.20,17.7,23.6,00.9,00.6,0651.7,31.1
2021-02-14T13:13:00Z,00000200,01000000,0000.03,0000.26,-000.31,-000.31,0000.08,-000.16,0000.58,0000.30,0000.16,17.6,23.6,00.9,00.6,0651.7,31.1
2021-02-14T13:14:00Z,00000200,01000000,-000.13,-000.09,0000.21,0000.21,-000.09,-000.24,-000.04,-000.17,-000.02,17.6,23.6,00.9,00.6,0651.7,31.1
2021-02-14T13:15:00Z,00000200,01000000,-000.25,0000.12,-000.25,-000.25,0000.31,-000.23,0000.22,0000.44,0000.17,17.6,23.6,01.0,00.7,0651.7,31.1
2021-02-14T13:16:00Z,00000200,01000000,0000.19,0000.40,-000.18,-000.03,0000.13,-000.19,0000.39,-000.08,-000.11,17.6,23.6,01.0,00.7,0651.4,31.1
2021-02-14T13:17:00Z,00000200,01000000,0000.28,0000.29,0000.03,0000.31,0000.10,-000.11,-000.27,0000.22,0000.54,17.6,23.5,01.1,00.8,0651.4,31.1
2021-02-14T13:18:00Z,00000200,01000000,-000.44,0000.06,-000.27,-000.09,-000.04,-000.19,0000.36,0000.26,-000.11,17.6,23.5,01.2,00.8,0651.3,31.1
2021-02-14T13:19:00Z,00000200,01000000,0000.08,0000.06,-000.08,0000.10,-000.17,-000.17,0000.09,-000.23,0000.07,17.5,23.5,01.1,00.8,0651.4,31.0
2021-02-14T13:20:00Z,00000200,01000000,0000.08,0000.07,-000.10,0000.27,0000.08,-000.10,0000.19,0000.35,0000.18,17.5,23.5,01.2,00.8,0651.4,31.1
2021-02-14T13:21:00Z,00000200,01000000,-000.11,0000.03,0000.19,-000.07,0000.16,0000.02,-000.07,0000.07,-000.03,17.5,23.5,01.2,00.8,0651.6,31.0
2021-02-14T13:22:00Z,00000200,01000000,0000.50,0000.38,-000.30,0000.52,-000.12,0000.00,0000.08,-000.09,-000.09,17.5,23.5,01.2,00.8,0651.4,31.0
2021-02-14T13:23:00Z,00000200,01000000,0000.28,0000.28,0000.21,-000.09,0000.09,-000.13,-000.10,0000.09,0000.17,17.5,23.5,01.3,00.9,0651.2,31.0
2021-02-14T13:24:00Z,00000200,01000000,0000.44,0000.07,-000.15,0000.11,0000.17,0000.21,0000.48,0000.25,-000.21,17.5,23.5,01.3,00.9,0650.9,31.0
2021-02-14T13:25:00Z,00000200,01000000,0000.53,0000.25,0000.34,-000.45,0000.36,0000.12,-000.25,0000.20,0000.38,17.4,23.5,01.3,00.9,0650.8,31.0
2021-02-14T13:26:00Z,00000200,01000000,-000.65,-000.02,0000.17,-000.47,0000.23,0000.12,0000.21,0000.04,-000.21,17.4,23.5,01.3,00.9,0650.8,31.0
2021-02-14T13:27:00Z,00000200,01000000,-000.32,0000.25,0000.27,-000.12,0000.01,0000.27,0000.35,-000.13,0000.38,17.4,23.5,01.3,00.9,0650.8,31.0
2021-02-14T13:28:00Z,00000200,01000000,0000.49,0000.05,-000.20,-000.22,0000.08,-000.02,0000.08,-000.07,0000.12,17.4,23.4,01.2,00.9,0650.9,31.0
2021-02-14T13:29:00Z,00000200,01000000,0000.96,0000.36,0000.30,-000.29,0000.08,0000.27,-000.03,0000.30,0000.02,17.4,23.4,01.4,01.0,0651.0,31.0
2021-02-14T13:30:00Z,00000200,01000000,-000.33,-000.04,-000.34,-000.02,0000.06,-000.09,-000.01,0000.07,0000.21,17.4,23.4,01.3,00.9,0651.1,31.0
2021-02-14T13:31:00Z,00000200,01000000,0000.16,0000.38,0000.21,-000.39,0000.05,0000.18,-000.06,0000.25,-000.11,17.4,23.4,01.4,01.0,0651.0,31.0
2021-02-14T13:32:00Z,00000200,01000000,0000.78,0000.23,-000.20,-000.46,0000.31,0000.03,0000.21,-000.29,-000.40,17.4,23.4,01.2,00.8,0651.1,31.1
2021-02-14T13:33:00Z,00000200,01000000,0000.43,0000.19,0000.26,-000.11,0000.01,0000.03,-000.05,0000.20,0000.32,17.4,23.4,01.3,00.9,0651.1,31.0
2021-02-14T13:34:00Z,00000200,01000000,0000.60,0000.14,0000.01,0000.16,0000.26,0000.08,0000.20,-000.30,0000.12,17.4,23.4,01.4,00.9,0651.3,31.0
2021-02-14T13:35:00Z,00000200,01000000,-000.11,-000.13,-000.01,-000.16,0000.05,0000.20,0000.55,0000.63,0000.14,17.4,23.4,01.3,00.9,0651.2,31.0
2021-02-14T13:36:00Z,00000200,01000000,0000.18,0000.11,0000.34,0000.43,0000.04,0000.00,0000.31,0000.26,0000.37,17.4,23.4,01.3,00.9,0651.1,31.0
2021-02-14T13:37:00Z,00000200,01000000,0000.04,0000.19,0000.49,0000.35,0000.12,0000.36,0000.09,0000.18,0000.44,17.5,23.4,01.3,00.9,0651.0,31.0
2021-02-14T13:38:00Z,00000200,01000000,0000.88,0000.26,0000.07,-000.14,0000.26,-000.05,0000.47,0000.30,0000.03,17.6,23.5,01.4,01.0,0651.1,31.1
2021-02-14T13:39:00Z,00000200,01000000,0000.44,0000.23,-000.04,0000.50,0000.33,0000.02,-000.07,0000.13,0000.17,17.7,23.5,01.4,00.9,0651.2,31.1
2021-02-14T13:40:00Z,00000200,01000000,-000.06,0000.18,-000.02,0000.03,0000.17,0000.28,0000.39,0000.15,0000.29,17.7,23.5,01.4,01.0,0651.1,31.1
2021-02-14T13:41:00Z,00000200,01000000,-000.46,0000.13,0000.16,0000.09,0000.23,0000.01,-000.38,0000.09,-000.20,17.7,23.5,01.3,00.9,0651.1,31.1
2021-02-14T13:42:00Z,00000200,01000000,0000.40,0000.03,0000.12,0000.47,0000.29,0000.34,0000.55,0000.29,0000.29,17.7,23.6,01.4,01.0,0651.0,31.1
2021-02-14T13:43:00Z,00000200,01000000,0000.42,0000.11,0000.33,0000.01,0000.28,0000.18,-000.36,-000.03,-000.17,17.7,23.6,01.4,01.0,0651.1,31.1
2021-02-14T13:44:00Z,00000200,01000000,0000.53,0000.34,0000.23,0000.12,0000.18,0000.27,0000.12,-000.04,0000.11,17.7,23.5,01.4,01.0,0651.3,31.1
2021-02-14T13:45:00Z,00000200,01000000,0000.19,0000.15,0000.09,0000.20,0000.04,0000.14,0000.44,0000.06,0000.30,17.6,23.6,01.4,01.0,0651.0,31.1
2021-02-14T13:46:00Z,00000200,01000000,0000.07,0000.12,-000.28,0000.10,-000.02,0000.33,-000.02,0000.58,0000.06,17.6,23.5,01.4,01.0,0651.1,31.1
2021-02-14T13:47:00Z,00000200,01000000,-000.03,0000.11,0000.14,-000.13,0000.10,0000.25,0000.35,-000.18,0000.15,17.6,23.5,01.5,01.0,0651.2,31.0
2021-02-14T13:48:00Z,00000200,01000000,-000.22,0000.50,-000.19,0000.21,0000.14,0000.16,-000.27,0000.22,-000.22,17.6,23.5,01.4,01.0,0651.1,31.1
2021-02-14T13:49:00Z,00000200,01000000,0000.09,0000.63,0000.31,0000.27,0000.13,0000.17,0000.51,0000.05,0000.34,17.6,23.5,01.4,01.0,0651.3,31.0
2021-02-14T13:50:00Z,00000200,01000000,-000.11,0000.07,0000.27,-000.27,0000.44,-000.30,0000.26,0000.25,0000.36,17.6,23.5,01.4,01.0,0651.3,31.0
2021-02-14T13:51:00Z,00000200,01000000,0000.61,0000.36,0000.10,-000.44,0000.12,0000.05,-000.40,0000.05,0000.04,17.6,23.5,01.4,01.0,0651.2,31.1
2021-02-14T13:52:00Z,00000200,01000000,0000.85,0000.04,0000.24,-000.72,0000.25,0000.17,0000.58,0000.46,-000.04,17.7,23.6,01.4,01.0,0651.2,31.0
2021-02-14T13:53:00Z,00000200,01000000,0000.12,0000.60,0000.04,0000.39,0000.13,0000.22,-000.06,-000.24,-000.10,17.7,23.5,01.4,01.0,0651.2,31.0
2021-02-14T13:54:00Z,00000200,01000000,-000.24,0000.23,0000.02,0000.50,0000.36,0000.19,-000.08,-000.11,0000.06,17.7,23.6,01.3,00.9,0651.2,31.1
2021-02-14T13:55:00Z,00000200,01000000,0000.03,0000.30,0000.09,-000.22,0000.01,0000.07,0000.14,0000.60,0000.38,17.7,23.6,01.3,00.9,0651.1,31.1
2021-02-14T13:56:00Z,00000200,01000000,0000.48,0000.33,0000.06,-000.04,0000.03,0000.19,0000.14,-000.21,-000.15,17.7,23.6,01.3,00.9,0651.3,31.1
2021-02-14T13:57:00Z,00000200,41000000,,,,,,,-000.13,-000.17,0000.18,17.7,23.6,00.6,00.4,0651.6,31.1
2021-02-14T13:58:00Z,00000200,61000000,,,,,,,-000.03,-000.03,-000.26,17.4,23.7,01.2,00.8,0650.2,31.1
2021-02-14T13:59:00Z,00000200,21000000,,,,,,,0000.24,-000.19,0000.12,17.4,23.8,01.2,00.8,0650.3,31.1
